sat.trackr.live / text

‹ back to catalog

2025-313AF

NORAD 67277 · 2025-313AF

PAYLOAD ACTIVE UNKNOWN

§ Identity

Operator
Country
TBD
Launch date
2025-12-28
Launch site
VOSTO
Launch vehicle
Mass (kg)
RCS (m²)

External: N2YO · Heavens-Above · Gunter

§ Orbital elements

Epoch: 2026-05-25T03:39:35.673408Z

Period
94.60 min
Inclination
97.3915°
Eccentricity
0.0015324
Mean motion
15.22269188 rev/d
Perigee alt
488.5 km
Apogee alt
509.5 km
Semi-major
6,877.1 km
B*
2.7594e-4
RAAN
220.0759°
Arg perigee
91.6533°
Mean anomaly
268.6458°
Rev number
2,244

§ Raw data

2025-313AF1 67277U 25313AF  26145.15249622  .00006301  00000+0  27594-3 0  99912 67277  97.3915 220.0759 0015324  91.6533 268.6458 15.22269188 22447

JSON: /api/v1/satellites/67277 · /tle

For live sub-satellite position, see the globe view (requires WebGL).

§ Visibility from observer

Set your observer location to see the next 7 days of passes ≥ 10°. The values pass through the URL so the page stays shareable.

No JS? Fill the form by hand. The geolocation button needs JavaScript.

§ Radio — SatNOGS DB

ModeDescriptionDownlinkUplink
LoRa LoRa telemetry 435.840 MHz

1 transmitter · refreshed weekly from db.satnogs.org